Regional Weather Roundup
Issued by NWS

Home | Current Version | Previous Version | Text Only | Print | Product List | Glossary Off
Versions: 1 2 3 4 5 6 7 8 9 10 11 12 13 14 15 16 17 18 19 20 21 22 23 24 25 26 27 28 29 30 31 32 33 34 35 36 37 38 39 40 41 42 43 44 45 46 47 48 49 50

000
ASUS43 KOAX 191410
RWRNE

WEATHER ROUNDUP FOR NEBRASKA
NATIONAL WEATHER SERVICE OMAHA NE
900 AM CDT THU OCT 19 2017

NOTES: SATELLITE DATA IS BEING USED TO AUGMENT CLOUD COVER ABOVE
       12000 FEET.
       "FAIR" INDICATES FEW OR NO CLOUDS BELOW 12,000 FEET WITH NO
       SIGNIFICANT WEATHER AND/OR OBSTRUCTIONS TO VISIBILITY.


NEZ001>004-019>022-054>056-191500-
NEBRASKA PANHANDLE

CITY           SKY/WX    TMP DP  RH WIND       PRES   REMARKS
SCOTTSBLUFF    CLOUDY    38  30  73 CALM      30.02R
ALLIANCE       CLOUDY    38  31  76 CALM      30.00S
CHADRON        CLOUDY    45  28  51 CALM      29.93S
GORDON         FAIR      49  34  57 SW12G18   29.96S
KIMBALL        CLOUDY    38  28  64 W7        30.06R WCI  33
SIDNEY         CLOUDY    43  32  65 W8        30.04S
$$

NEZ057>060-069>072-079>082-191500-
SOUTHWEST NEBRASKA

CITY           SKY/WX    TMP DP  RH WIND       PRES   REMARKS
NORTH PLATTE   CLOUDY    37  35  92 CALM      30.07R
IMPERIAL       CLOUDY    38  32  79 SW3       30.06S
LEXINGTON      CLOUDY    38  36  91 CALM      30.07R
MCCOOK         CLOUDY    40  37  89 CALM      30.06S
OGALLALA       CLOUDY    37  33  88 CALM      30.05S
$$

NEZ005>010-023>029-035>040-094-191500-
NORTH CENTRAL NEBRASKA

CITY           SKY/WX    TMP DP  RH WIND       PRES   REMARKS
VALENTINE      CLOUDY    46  36  68 SW6       29.98S
AINSWORTH      CLEAR     47  37  67 S12       30.00F
BROKEN BOW     CLOUDY    39  36  89 CALM      30.05R
O`NEILL        CLOUDY    46  39  78 S7        30.03R
ORD            CLOUDY    36  32  85 CALM      30.05R
THEDFORD       CLOUDY    49  37  61 SW5       30.03S
$$

NEZ041-046>049-061>064-073>077-083>087-191500-
SOUTH CENTRAL NEBRASKA

CITY           SKY/WX    TMP DP  RH WIND       PRES   REMARKS
GRAND ISLAND   SUNNY     44  39  82 CALM      30.07R
AURORA         SUNNY     43  39  85 CALM      30.06R
HASTINGS       SUNNY     43  38  82 CALM      30.07R
HEBRON         SUNNY     44  41  89 CALM      30.06R
HOLDREGE       CLOUDY    41  38  88 CALM      30.06S
KEARNEY        CLOUDY    43  37  79 CALM      30.07R
YORK           SUNNY     45  45 100 CALM      30.07R
$$

NEZ011>018-030>034-042>045-191500-
NORTHEAST NEBRASKA

CITY           SKY/WX    TMP DP  RH WIND       PRES   REMARKS
NORFOLK        SUNNY     43  39  86 CALM      30.03F
ALBION         MOSUNNY   39  37  92 CALM      30.06R
BLAIR          SUNNY     53  48  84 SE3       30.07R
COLUMBUS       CLOUDY    44  40  85 CALM      30.07R
FREMONT        SUNNY     47  44  87 CALM      30.07R
TEKAMAH        SUNNY     45  43  93 CALM      30.08R
WAYNE          SUNNY     45  42  91 SW3       30.05R
$$

NEZ050>053-065>068-078-088>093-191500-
SOUTHEAST NEBRASKA

CITY           SKY/WX    TMP DP  RH WIND       PRES   REMARKS
LINCOLN        SUNNY     47  43  86 CALM      30.09R
OMAHA EPPLEY   MOSUNNY   53  47  79 CALM      30.08S
BEATRICE       SUNNY     49  47  93 CALM      30.06S
FALLS CITY     SUNNY     50  48  93 SE5       30.08R
NEBRASKA CITY  SUNNY     52  52 100 SE5       30.08R
PLATTSMOUTH    SUNNY     52  50  93 E5        30.08R
$$

NEZ044-045-051>053-067-191500-
OMAHA AREA

CITY           SKY/WX    TMP DP  RH WIND       PRES   REMARKS
OMAHA EPPLEY   MOSUNNY   53  47  79 CALM      30.08S
BLAIR          SUNNY     53  48  84 SE3       30.07R
FREMONT        SUNNY     47  44  87 CALM      30.07R
MILLARD        SUNNY     50  49  96 CALM      30.08R
OFFUTT AFB     SUNNY     51  49  94 CALM      30.07R
PLATTSMOUTH    SUNNY     52  50  93 E5        30.08R
WAHOO          FAIR      48  44  88 CALM      30.07R
$$




USA.gov is the U.S. government's official web portal to all federal, state and local government web resources and services.